Location: Unspecified
(0.0000°N, 0.0000°E)
Time: 19:26:19
(UTC+00:00)

RS-15 - Pass Details

Date: 16 December 2017
Orbit: 1890 x 2154 km, 64.8° (Epoch: 17 June)

Event Time Altitude Azimuth Distance (km) Brightness Sun altitude
Exits shadow 00:56:11 21° 142° (SE) 3,456 9.5 -62.4°
Drops below altitude 10° 00:59:01 10° 147° (SSE) 4,274 10.1 -62.0°
Sets 01:02:17 0° 150° (SSE) 5,270 10.7 -61.6°
